Location: Boullarre
(49.1305°N, 3.0047°E)
Time: 04:57:40
(UTC+00:00)

Tiangong - Visible Passes

Search period start: 18 September 2024 00:00
Search period end: 28 September 2024 00:00
Orbit: 373 x 377 km, 41.5° (Epoch: 17 September)

Date Brightness Start Highest point End Pass type
(mag) Time Alt. Az. Time Alt. Az. Time Alt. Az.
19 Sep 0.1 19:07:13 10° S 19:08:39 13° SSE 19:08:39 13° SSE visible
20 Sep 0.1 19:39:38 10° SW 19:40:47 16° SSW 19:40:47 16° SSW visible
21 Sep -0.1 18:37:07 10° SSW 18:39:04 15° SSE 18:40:43 11° SE visible
21 Sep 0.9 20:12:41 10° SW 20:12:42 10° SW 20:12:42 10° SW visible
22 Sep -0.4 19:09:44 10° SW 19:12:04 20° S 19:12:28 19° SSE visible
23 Sep 0.1 19:42:44 10° SW 19:44:05 16° SSW 19:44:05 16° SSW visible
24 Sep -0.3 18:39:26 10° SW 18:41:47 20° S 18:43:35 13° SE visible
25 Sep -0.1 19:12:24 10° SW 19:14:27 16° SSW 19:14:57 16° S visible
26 Sep -0.1 18:08:46 10° SW 18:11:03 19° S 18:13:20 10° SE visible
27 Sep 0.3 18:41:45 10° SW 18:43:27 14° SSW 18:45:08 10° SSE visible
